Location: Lawrence
(38.9720°N, 95.2350°W)
Time: 22:47:55
(UTC-05:00)

JAS-1B - Visible Passes

Search period start: 01 July 2016 00:00
Search period end: 11 July 2016 00:00
Orbit: 911 x 1745 km, 99.0° (Epoch: 01 July)

Date Brightness Start Highest point End Pass type
(mag) Time Alt. Az. Time Alt. Az. Time Alt. Az.
01 Jul 9.4 21:19:07 10° N 21:23:54 27° WNW 21:29:03 10° WSW visible
02 Jul 9.9 21:38:43 10° NNW 21:42:43 19° WNW 21:46:58 10° WSW visible
03 Jul 10.1 21:58:46 10° NNW 22:01:29 14° WNW 22:04:18 10° W visible
05 Jul 10.5 05:22:39 10° E 05:25:27 13° ENE 05:28:08 10° NNE visible
07 Jul 9.7 21:22:23 10° NNW 21:27:08 25° WNW 21:32:22 10° WSW visible
08 Jul 10.1 21:42:02 10° NNW 21:45:57 18° WNW 21:50:09 10° WSW visible
09 Jul 10.3 22:02:15 10° NW 22:04:42 13° WNW 22:07:17 10° W visible
